Location: Unspecified
(0.0000°N, 0.0000°E)
Time: 17:52:00
(UTC+02:00)

AO-40 - Visible Passes

Search period start: 30 September 2014 00:00
Search period end: 10 October 2014 00:00
Orbit: 1078 x 58743 km, 8.5° (Epoch: 29 September)

Date Brightness Start Highest point End Pass type
(mag) Time Alt. Az. Time Alt. Az. Time Alt. Az.
30 Sep ? 00:00:00 62° E 02:13:15 87° S 09:57:50 10° ENE visible
30 Sep ? 21:10:43 10° E 03:07:36 65° E 04:43:37 10° E visible
02 Oct ? 01:12:01 10° W 02:32:10 29° W 05:24:39 10° W visible
02 Oct ? 19:38:34 10° W 00:29:32 84° S 07:05:17 10° W daylight
03 Oct ? 19:30:42 10° E 02:04:24 87° S 09:30:19 10° ENE daylight
04 Oct ? 21:02:06 10° E 02:39:34 61° E 04:15:02 10° E visible
06 Oct ? 00:40:39 10° W 02:04:45 33° W 05:19:00 10° W visible
06 Oct ? 19:10:54 10° W 00:22:35 84° S 06:56:21 10° W daylight
07 Oct ? 19:23:02 10° E 01:55:39 88° S 09:02:47 10° ENE daylight
08 Oct ? 20:53:38 10° E 02:11:33 57° E 03:46:18 10° E visible
